Kuchera_Ratio
0.0 0.0 0.0 0.0 0.0 0.0 0.0 0.0 0.0 0.0 0.0 0.0 0.0 0.0 0.0 0.0 0.0 0.0 0.0 0.0 0.0 0.0 0.0 0.0 0.0 0.0 0.0 0.0 0.0 0.0 0.0 0.0 0.0 0.0 0.0 0.0 0.0 0.0
0.0 0.0 0.0 0.0 0.0 0.0 0.0 0.0 0.0 0.0 0.0 0.0 0.0 0.0 0.0 0.0 0.0 0.0 0.0 0.0 0.0 0.0 0.0 0.0 0.0 0.0 0.0 0.0 0.0 0.0 0.0 0.0 0.0 0.0 0.0 0.0 0.0 0.0
0.0 0.0 0.0 0.0 0.0 0.0 0.0 0.0 0.0 0.0 0.0 0.0 0.0 0.0 0.0 0.0 0.0 0.0 0.0 0.0 0.0 0.0 0.0 0.0 0.0 0.0 0.0 0.0 0.0 0.0 0.0 0.0 0.0 0.0 0.0 0.0 0.0 0.0
0.0 0.0 0.0 0.0 0.0 0.0 0.0 0.0 0.0 0.0 0.0 0.0 0.0 0.0 0.0 0.0 0.0 0.0 0.0 0.0 0.0 0.0 0.0 0.0 0.0 0.0 0.0 0.0 0.0 0.0 0.0 0.0 0.0 0.0 0.0 0.0 0.0 0.0
0.0 0.0 0.0 0.0 0.0 0.0 0.0 0.0 0.0 0.0 0.0 0.0 1.0 0.0 0.0 0.0 0.0 0.0 0.0 0.0 0.0 0.0 0.0 0.0 0.0 0.0 0.0 0.0 0.0 0.0 0.0 0.0 0.0 0.0 0.0 0.0 0.0 0.0
0.0 0.0 0.0 0.0 0.0 0.0 0.0 0.0 0.0 0.0 0.2 1.8 2.6 2.8 0.8 0.0 0.0 1.6 1.8 0.0 0.0 0.0 0.0 0.0 0.0 0.0 0.0 0.0 0.0 0.0 0.0 0.0 0.0 0.0 0.0 0.0 0.0 0.0
0.0 0.0 0.0 0.0 0.0 0.0 0.0 0.0 0.0 2.8 4.2 5.4 6.6 5.7 6.0 6.4 6.0 2.8 4.0 2.2 0.4 0.0 0.0 0.0 0.0 0.0 0.0 0.0 0.0 0.0 0.0 0.0 0.0 0.0 0.0 0.0 0.0 0.0
0.0 0.0 0.0 0.0 0.0 0.0 0.0 0.8 2.6 4.4 6.2 7.4 7.9 9.4 8.2 6.8 4.6 5.2 5.8 6.6 7.8 0.0 1.0 2.0 0.0 0.0 0.0 0.0 0.0 0.0 0.0 0.0 0.0 0.0 0.0 0.0 0.0 0.0
0.2 1.0 0.0 0.0 0.0 0.0 0.0 1.6 2.4 2.4 5.6 5.6 8.8 8.0 8.0 6.0 5.8 6.4 6.2 6.4 7.0 3.6 3.0 5.2 2.2 3.0 0.8 0.0 0.0 0.0 0.0 0.0 0.2 0.0 0.0 0.0 0.0 0.0
0.0 0.2 1.8 3.1 3.0 1.4 2.8 7.0 7.2 4.4 3.8 3.4 4.8 5.2 4.2 3.2 4.0 4.4 5.2 6.0 6.0 5.2 3.6 8.0 3.9 4.0 1.8 0.0 0.0 0.2 0.8 1.4 0.4 0.0 0.0 0.0 0.0 0.0
0.0 0.8 2.0 4.0 1.6 0.0 6.6 8.0 6.8 5.8 2.8 1.4 1.4 1.6 2.0 2.4 2.8 5.0 7.4 8.2 9.0 6.8 5.9 5.8 5.1 4.8 2.4 5.2 7.0 2.0 2.8 1.6 0.0 0.0 0.0 0.0 0.0 0.0
5.0 2.8 2.2 4.4 3.6 4.0 7.0 7.6 8.4 6.6 6.4 6.0 5.6 5.0 3.8 3.8 3.8 4.6 5.2 9.2 9.2 9.0 6.4 7.8 6.2 5.6 7.8 7.4 8.0 6.2 6.1 1.9 0.0 0.0 0.0 0.0 0.0 0.0
6.9 6.8 7.4 3.6 4.4 4.0 3.6 6.0 6.4 4.8 6.2 6.8 6.6 6.0 5.8 5.8 5.4 5.0 5.8 7.8 10.6 10.0 5.0 6.2 6.6 6.4 7.0 10.0 8.5 7.6 7.6 6.4 2.0 0.7 0.0 0.0 0.0 0.0
7.3 8.0 7.2 4.2 4.2 4.4 4.6 4.0 4.8 6.6 6.2 6.4 6.8 6.8 7.0 6.8 6.8 6.2 6.5 7.1 7.2 8.4 6.8 7.2 8.0 7.6 8.2 11.1 13.3 9.0 8.2 8.0 6.8 5.0 5.5 4.0 1.4 0.0
8.7 7.4 4.8 4.6 4.4 5.0 3.0 4.4 5.8 5.4 6.4 7.4 8.0 7.6 7.0 6.0 6.4 7.0 6.1 5.9 6.4 6.9 7.2 7.2 7.8 6.8 7.2 11.4 12.7 12.1 11.2 9.8 8.8 9.0 8.6 8.4 8.6 7.8
9.0 8.8 7.0 7.9 7.6 4.8 5.2 4.6 5.2 5.4 6.6 7.6 7.6 7.0 6.0 6.2 6.6 6.8 8.6 7.8 8.0 8.2 7.1 7.4 5.8 6.4 9.6 10.2 10.1 11.6 10.0 12.3 9.8 9.6 9.6 9.6 9.2 8.6
10.4 10.3 8.4 7.0 6.6 6.2 5.6 5.6 5.8 5.4 7.0 7.4 7.8 8.2 7.6 7.2 7.6 8.9 7.8 7.6 11.4 11.4 9.4 7.8 7.1 7.0 7.4 8.4 10.9 10.4 10.2 10.0 9.0 9.4 9.6 11.6 10.4 9.7
11.4 9.8 8.0 8.2 8.4 8.0 8.4 7.6 6.4 6.8 6.4 6.6 7.6 8.0 8.6 8.4 9.4 8.4 7.8 9.3 12.0 11.1 10.0 8.6 8.8 9.8 9.0 8.4 6.6 11.2 10.8 10.8 9.8 11.0 10.2 12.6 13.0 11.0
10.5 7.5 8.3 8.5 8.4 9.2 9.0 8.8 8.6 7.2 6.4 7.4 7.8 8.2 10.0 10.0 9.4 8.8 8.5 8.5 10.7 9.9 9.8 8.2 9.2 9.9 13.3 14.6 11.2 7.0 11.6 11.8 12.5 13.1 12.7 12.7 13.9 13.3
8.1 7.2 8.1 9.3 9.4 9.6 9.4 9.2 8.2 7.8 7.8 10.4 8.6 8.4 10.6 10.4 10.0 9.7 9.1 9.8 10.6 9.9 10.7 9.2 8.8 9.5 12.7 13.7 13.8 12.7 8.2 12.2 13.6 14.7 14.8 13.9 12.7 10.4
8.5 8.3 8.9 9.9 10.0 10.2 9.2 8.6 7.8 8.2 7.8 7.8 10.0 9.0 10.0 10.4 10.4 10.3 10.4 10.6 10.5 12.1 13.8 12.9 11.2 8.8 9.2 12.6 14.9 15.5 13.5 9.6 11.4 13.4 13.6 14.4 15.3 14.9
9.8 9.7 10.4 10.9 11.3 11.3 9.2 8.4 8.2 7.8 7.8 8.6 9.4 8.0 9.2 10.0 11.1 10.9 10.7 10.8 12.3 12.9 13.4 12.1 10.4 9.8 12.3 14.3 16.5 16.5 16.3 15.4 13.4 12.3 11.2 11.5 14.4 16.5
10.0 10.2 11.4 11.6 11.8 12.0 8.4 9.0 9.0 8.4 8.0 8.4 11.1 9.8 9.0 10.4 10.2 10.2 12.0 12.3 12.6 12.7 12.8 12.6 12.0 12.3 13.2 13.8 14.6 15.6 15.7 16.0 16.5 16.1 16.0 11.2 7.1 8.2